User: anonymous
Location: NJAA Observatory
(40.6819°N, 74.8979°W)
Time: 05:26:59
(UTC-04:00)
Language:

Iridium 4 - Orbit

View from above orbital plane
View from above orbital plane
View from above satellite
View from above satellite

Ground track
Ground track

The orbit data is extracted from the following two-line orbital elements,

1 24796U 97020E   14211.48547767  .00000188  00000-0  59366-4 0  9432
2 24796 086.3939 038.4621 0002060 103.9653 312.3590 14.34666959902341
Epoch (UTC): 30 July 2014 11:39:05
Eccentricity: 0.0002060
inclination: 86.3939°
perigee height: 775 km
apogee height: 777 km
right ascension of ascending node: 38.4621°
argument of perigee: 103.9653°
revolutions per day: 14.34666959
mean anomaly at epoch: 312.3590°
orbit number at epoch: 90234

The dashed part of the orbit path shows where the satellite is in the earth's shadow,  

DLR